Weather History for Perry, IA

Change the Weather History Date:

Wednesday, November 28, 2012

  Actual Average Record
Temperature  
Mean Temperature 33 °F -  
Max Temperature 49 °F 35 °F 60 °F (1949)
Min Temperature 17 °F 18 °F -5 °F (1952)
Degree Days  
Heating Degree Days 32    
Moisture  
Dew Point 21 °F    
Average Humidity 67    
Maximum Humidity 89    
Minimum Humidity 30    
Precipitation  
Precipitation 0.00 in - - ()
Sea Level Pressure  
Sea Level Pressure 30.27 in    
Wind  
Wind Speed 6 mph (SSW)    
Max Wind Speed 14 mph    
Max Gust Speed -    
Visibility 9 miles    
Events      
Averages and records for this station are not official NWS values.
T = Trace of Precipitation, MM = Missing Value Source: NWS Daily Summary

Daily Weather History Graph

Daily Weather History Graph

Search for Another Location

Airport:

Trip Planner

Search our weather history database for the weather conditions in past years. The results will help you decide how hot, cold, wet, or windy it might be!

Date:

Astronomy

Nov. 28, 2012 Rise Set
Actual Time 7:21 AM CST 4:47 PM CST
Civil Twilight 6:51 AM CST 5:18 PM CST
Nautical Twilight 6:16 AM CST 5:52 PM CST
Astronomical Twilight 5:43 AM CST 6:26 PM CST
Moon 5:02 PM CST (11/28) 7:20 AM CST (11/28)
Length of Visible Light 10h 27m
Length of Day
9h 25m
Full, 100% of the Moon is Illuminated
Nov 28
Full
Dec 6
Last Quarter
Dec 13
New
Dec 19
First Quarter
Dec 28
Full

Hourly Weather History & Observations

Time (CST) Temp. Windchill Dew Point Humidity Pressure Visibility Wind Dir Wind Speed Gust Speed Precip Events Conditions
12:15 AM 25.5 °F 18.7 °F 20.1 °F 80% 30.28 in 10.0 mi WNW 5.8 mph - N/A   Clear
12:35 AM 25.3 °F 16.0 °F 20.3 °F 81% 30.28 in 10.0 mi WNW 9.2 mph - N/A   Clear
12:55 AM 24.8 °F 16.9 °F 20.3 °F 83% 30.28 in 10.0 mi NW 6.9 mph - N/A   Clear
1:15 AM 24.3 °F 17.3 °F 19.6 °F 82% 30.29 in 10.0 mi WNW 5.8 mph - N/A   Clear
1:35 AM 23.7 °F 15.6 °F 19.6 °F 84% 30.29 in 10.0 mi WNW 6.9 mph - N/A   Clear
1:55 AM 24.3 °F 16.3 °F 19.9 °F 84% 30.29 in 10.0 mi WNW 6.9 mph - N/A   Clear
2:15 AM 23.5 °F 15.4 °F 19.4 °F 84% 30.30 in 10.0 mi WNW 6.9 mph - N/A   Clear
2:35 AM 22.1 °F 14.7 °F 18.5 °F 86% 30.31 in 7.0 mi WNW 5.8 mph - N/A   Clear
2:55 AM 20.5 °F 11.7 °F 17.2 °F 87% 30.32 in 7.0 mi West 6.9 mph - N/A   Clear
3:15 AM 21.4 °F 13.8 °F 18.1 °F 87% 30.32 in 7.0 mi WNW 5.8 mph - N/A   Clear
3:35 AM 20.8 °F 14.4 °F 17.4 °F 87% 30.33 in 10.0 mi NW 4.6 mph - N/A   Clear
3:55 AM 21.9 °F 14.5 °F 19.0 °F 89% 30.32 in 7.0 mi NNW 5.8 mph - N/A   Clear
4:15 AM 23.9 °F 18.0 °F 20.5 °F 87% 30.32 in 7.0 mi NNW 4.6 mph - N/A   Clear
4:35 AM 21.0 °F 16.2 °F 16.9 °F 84% 30.33 in 7.0 mi West 3.5 mph - N/A   Clear
4:55 AM 17.8 °F 10.9 °F 14.4 °F 86% 30.34 in 7.0 mi West 4.6 mph - N/A   Clear
5:15 AM 18.3 °F 11.5 °F 15.4 °F 89% 30.34 in 7.0 mi WNW 4.6 mph - N/A   Clear
5:35 AM 18.0 °F 12.7 °F 14.7 °F 87% 30.35 in 7.0 mi WNW 3.5 mph - N/A   Clear
5:55 AM 17.8 °F - 14.7 °F 88% 30.35 in 7.0 mi Calm Calm - N/A   Clear
6:15 AM 17.6 °F 10.7 °F 14.7 °F 88% 30.36 in 7.0 mi West 4.6 mph - N/A   Clear
6:35 AM 18.3 °F 8.2 °F 15.6 °F 89% 30.37 in 7.0 mi West 8.1 mph - N/A   Clear
6:55 AM 18.5 °F 10.4 °F 15.6 °F 89% 30.37 in 7.0 mi West 5.8 mph - N/A   Clear
7:15 AM 17.2 °F - 14.0 °F 87% 30.37 in 7.0 mi Calm Calm - N/A   Clear
7:35 AM 17.8 °F 10.9 °F 14.7 °F 88% 30.37 in 7.0 mi NW 4.6 mph - N/A   Clear
7:55 AM 19.9 °F 14.9 °F 17.1 °F 89% 30.38 in 7.0 mi NW 3.5 mph - N/A   Clear
8:15 AM 22.5 °F 17.8 °F 19.6 °F 89% 30.38 in 5.0 mi West 3.5 mph - N/A   Clear
8:35 AM 25.3 °F - 21.6 °F 86% 30.39 in 7.0 mi Calm Calm - N/A   Clear
8:55 AM 27.5 °F 23.6 °F 23.0 °F 83% 30.39 in 7.0 mi West 3.5 mph - N/A   Clear
9:15 AM 28.6 °F - 23.5 °F 81% 30.40 in 10.0 mi Calm Calm - N/A   Clear
9:55 AM 31.8 °F - 24.8 °F 75% 30.39 in 10.0 mi Calm Calm - N/A   Clear
10:15 AM 34.2 °F - 25.5 °F 71% 30.39 in 10.0 mi Calm Calm - N/A   Clear
10:35 AM 36.1 °F 33.5 °F 25.7 °F 66% 30.39 in 10.0 mi SE 3.5 mph - N/A   Clear
10:55 AM 37.8 °F 34.2 °F 25.7 °F 62% 30.38 in 10.0 mi SSE 4.6 mph - N/A   Clear
11:15 AM 38.8 °F 35.4 °F 25.5 °F 59% 30.37 in 10.0 mi SE 4.6 mph - N/A   Clear
11:35 AM 40.3 °F 34.9 °F 25.5 °F 56% 30.35 in 10.0 mi SSE 8.1 mph - N/A   Clear
11:55 AM 41.5 °F 37.8 °F 25.0 °F 52% 30.34 in 10.0 mi SSE 5.8 mph - N/A   Clear
12:15 PM 43.2 °F 38.4 °F 24.6 °F 48% 30.32 in 10.0 mi SE 8.1 mph - N/A   Clear
12:55 PM 45.1 °F 40.3 °F 23.9 °F 43% 30.30 in 10.0 mi SSE 9.2 mph - N/A   Clear
1:15 PM 46.4 °F 41.9 °F 23.7 °F 41% 30.29 in 10.0 mi South 9.2 mph - N/A   Clear
1:35 PM 47.3 °F - 23.4 °F 39% 30.28 in 10.0 mi South 10.4 mph - N/A   Clear
1:55 PM 48.0 °F - 22.1 °F 36% 30.27 in 10.0 mi South 12.7 mph - N/A   Clear
2:15 PM 49.1 °F - 21.9 °F 34% 30.26 in 10.0 mi South 9.2 mph - N/A   Clear
2:35 PM 49.3 °F - 21.2 °F 33% 30.24 in 10.0 mi SSW 13.8 mph - N/A   Clear
2:55 PM 49.6 °F - 20.8 °F 32% 30.24 in 10.0 mi South 11.5 mph - N/A   Clear
3:15 PM 49.5 °F - 19.2 °F 30% 30.23 in 10.0 mi South 12.7 mph - N/A   Clear
3:35 PM 49.1 °F - 18.5 °F 30% 30.22 in 10.0 mi South 12.7 mph - N/A   Clear
3:55 PM 48.0 °F - 19.4 °F 32% 30.21 in 10.0 mi South 10.4 mph - N/A   Clear
4:15 PM 46.8 °F - 19.8 °F 34% 30.20 in 10.0 mi SSE 9.2 mph - N/A   Clear
4:35 PM 43.3 °F 38.6 °F 19.9 °F 39% 30.20 in 10.0 mi South 8.1 mph - N/A   Clear
4:55 PM 39.0 °F 32.8 °F 19.2 °F 45% 30.20 in 10.0 mi SSE 9.2 mph - N/A   Clear
5:15 PM 38.7 °F 32.4 °F 19.9 °F 47% 30.19 in 10.0 mi SSE 9.2 mph - N/A   Clear
5:35 PM 35.4 °F 27.8 °F 19.2 °F 52% 30.19 in 10.0 mi SSE 10.4 mph - N/A   Clear
5:55 PM 34.0 °F 25.5 °F 19.2 °F 55% 30.17 in 7.0 mi SSE 11.5 mph - N/A   Clear
6:35 PM 33.3 °F 25.7 °F 20.1 °F 59% 30.18 in 10.0 mi SSE 9.2 mph - N/A   Clear
6:55 PM 35.6 °F 29.2 °F 20.8 °F 55% 30.17 in 10.0 mi SSE 8.1 mph - N/A   Clear
7:35 PM 34.7 °F 27.5 °F 21.6 °F 59% 30.17 in 10.0 mi SSE 9.2 mph - N/A   Clear
7:55 PM 32.9 °F 25.3 °F 21.6 °F 63% 30.16 in 10.0 mi SSE 9.2 mph - N/A   Clear
8:15 PM 33.3 °F 25.7 °F 22.3 °F 64% 30.14 in 10.0 mi SSE 9.2 mph - N/A   Clear
8:35 PM 33.4 °F 25.9 °F 23.2 °F 66% 30.14 in 10.0 mi SSE 9.2 mph - N/A   Clear
8:55 PM 34.7 °F 28.1 °F 23.7 °F 64% 30.14 in 10.0 mi SSE 8.1 mph - N/A   Clear
9:15 PM 33.8 °F 28.6 °F 23.7 °F 67% 30.14 in 10.0 mi South 5.8 mph - N/A   Clear
9:35 PM 32.7 °F 26.4 °F 23.5 °F 69% 30.14 in 10.0 mi SSE 6.9 mph - N/A   Clear
9:55 PM 32.2 °F 25.0 °F 23.5 °F 70% 30.13 in 10.0 mi South 8.1 mph - N/A   Clear
10:15 PM 35.1 °F 29.3 °F 25.7 °F 69% 30.13 in 10.0 mi South 6.9 mph - N/A   Clear
10:35 PM 35.2 °F 29.5 °F 25.7 °F 68% 30.12 in 10.0 mi SSE 6.9 mph - N/A   Clear
10:55 PM 34.3 °F 27.0 °F 25.9 °F 71% 30.13 in 10.0 mi SSE 9.2 mph - N/A   Clear
11:15 PM 34.2 °F 26.8 °F 26.1 °F 72% 30.13 in 10.0 mi South 9.2 mph - N/A   Clear
11:35 PM 34.2 °F 26.8 °F 26.4 °F 73% 30.12 in 10.0 mi SSE 9.2 mph - N/A   Clear